When you browse on this site, cookies collect data to enhance your experience and personalize the content and advertising you see.
Visit our Privacy Policy to learn more. By continuing to use the site, you agree to this use of cookies and data.
  • In Österreich
  • Länderverzeichnis
  • Für 7 Tage
  • Wassertemperatur
  • Wetterkarte
  • News
  • Widgets
  • user-avatar
    Anmelden

    Stündliche Wetter Laszkar Gah

    Heute, 18 Februar, Dienstag

    Zeit Temperatur Niederschläge Wind Luftdruck Luftfeuchtigkeit
    00:00 +13°C° 0 mm 1 m/S 698 mmHg 34%
    01:00 +12°C° 0 mm 1 m/S 697 mmHg 35%
    02:00 +12°C° 0 mm 1 m/S 697 mmHg 35%
    03:00 +12°C° 0 mm 2 m/S 696 mmHg 34%
    04:00 +12°C° 0 mm 2 m/S 696 mmHg 33%
    05:00 +12°C° 0 mm 2 m/S 697 mmHg 34%
    06:00 +12°C° 0 mm 2 m/S 697 mmHg 34%
    07:00 +10°C° 0 mm 2 m/S 697 mmHg 35%
    08:00 +13°C° 0 mm 2 m/S 698 mmHg 31%
    09:00 +15°C° 0 mm 1 m/S 698 mmHg 27%
    10:00 +18°C° 0 mm 1 m/S 699 mmHg 23%
    11:00 +19°C° 0 mm 1 m/S 698 mmHg 22%
    12:00 +20°C° 0 mm 1 m/S 698 mmHg 20%
    13:00 +21°C° 0 mm 1 m/S 698 mmHg 18%
    14:00 +20°C° 0 mm 2 m/S 697 mmHg 19%
    15:00 +20°C° 0 mm 3 m/S 697 mmHg 19%
    16:00 +20°C° 0 mm 4 m/S 696 mmHg 19%
    17:00 +19°C° 0 mm 4 m/S 696 mmHg 23%
    18:00 +18°C° 0 mm 4 m/S 696 mmHg 28%
    19:00 +15°C° 0 mm 4 m/S 697 mmHg 32%
    20:00 +15°C° 0 mm 4 m/S 696 mmHg 36%
    21:00 +14°C° 0 mm 4 m/S 696 mmHg 41%
    22:00 +13°C° 0 mm 5 m/S 696 mmHg 45%
    23:00 +12°C° 0 mm 5 m/S 695 mmHg 48%

    Morgen, 19 Februar, Mittwoch

    Zeit Temperatur Niederschläge Wind Luftdruck Luftfeuchtigkeit
    00:00 +12°C° 0 mm 5 m/S 695 mmHg 50%
    01:00 +10°C° 0 mm 6 m/S 695 mmHg 52%
    02:00 +9°C° 0 mm 6 m/S 695 mmHg 55%
    03:00 +9°C° 0 mm 6 m/S 694 mmHg 58%
    04:00 +8°C° 0 mm 7 m/S 694 mmHg 61%
    05:00 +7°C° 0 mm 6 m/S 694 mmHg 62%
    06:00 +7°C° 0 mm 6 m/S 695 mmHg 63%
    07:00 +5°C° 0 mm 6 m/S 695 mmHg 64%
    08:00 +7°C° 0 mm 5 m/S 695 mmHg 59%
    09:00 +8°C° 0 mm 5 m/S 696 mmHg 54%
    10:00 +10°C° 0 mm 4 m/S 696 mmHg 49%
    11:00 +11°C° 0 mm 4 m/S 696 mmHg 45%
    12:00 +13°C° 0 mm 4 m/S 695 mmHg 41%
    13:00 +14°C° 0 mm 3 m/S 695 mmHg 37%
    14:00 +14°C° 0 mm 3 m/S 694 mmHg 35%
    15:00 +16°C° 0 mm 2 m/S 694 mmHg 34%
    16:00 +16°C° 0 mm 2 m/S 694 mmHg 32%
    17:00 +15°C° 0 mm 2 m/S 694 mmHg 36%
    18:00 +13°C° 0 mm 3 m/S 694 mmHg 40%
    19:00 +12°C° 0 mm 3 m/S 695 mmHg 43%
    20:00 +12°C° 0 mm 3 m/S 695 mmHg 44%
    21:00 +12°C° 0 mm 2 m/S 695 mmHg 45%
    22:00 +12°C° 0 mm 2 m/S 695 mmHg 46%
    23:00 +10°C° 0 mm 2 m/S 695 mmHg 47%

    übermorgen, 20 Februar, Donnerstag

    Zeit Temperatur Niederschläge Wind Luftdruck Luftfeuchtigkeit
    00:00 +11°C° 0 mm 1 m/S 695 mmHg 48%
    01:00 +10°C° 0 mm 1 m/S 695 mmHg 48%
    02:00 +9°C° 0 mm 1 m/S 695 mmHg 48%
    03:00 +9°C° 0 mm 1 m/S 695 mmHg 48%
    04:00 +8°C° 0 mm 1 m/S 695 mmHg 48%
    05:00 +7°C° 0 mm 2 m/S 695 mmHg 48%
    06:00 +7°C° 0 mm 2 m/S 695 mmHg 48%
    07:00 +7°C° 0 mm 2 m/S 696 mmHg 49%
    08:00 +9°C° 0 mm 2 m/S 696 mmHg 44%
    09:00 +10°C° 0 mm 2 m/S 696 mmHg 40%
    10:00 +13°C° 0 mm 2 m/S 697 mmHg 35%
    11:00 +14°C° 0 mm 2 m/S 697 mmHg 32%
    12:00 +15°C° 0 mm 2 m/S 696 mmHg 29%
    13:00 +16°C° 0 mm 2 m/S 696 mmHg 26%
    14:00 +17°C° 0 mm 2 m/S 696 mmHg 25%
    15:00 +18°C° 0 mm 1 m/S 696 mmHg 24%
    16:00 +18°C° 0 mm 1 m/S 695 mmHg 22%
    17:00 +16°C° 0 mm 1 m/S 695 mmHg 26%
    18:00 +15°C° 0 mm 2 m/S 696 mmHg 29%
    19:00 +15°C° 0 mm 2 m/S 696 mmHg 32%
    20:00 +14°C° 0 mm 2 m/S 696 mmHg 31%
    21:00 +14°C° 0 mm 2 m/S 696 mmHg 31%
    22:00 +13°C° 0 mm 3 m/S 696 mmHg 30%
    23:00 +12°C° 0 mm 3 m/S 695 mmHg 31%

    21 Februar, Freitag

    Zeit Temperatur Niederschläge Wind Luftdruck Luftfeuchtigkeit
    00:00 +12°C° 0 mm 4 m/S 695 mmHg 31%
    01:00 +12°C° 0 mm 5 m/S 695 mmHg 32%
    02:00 +10°C° 0 mm 5 m/S 695 mmHg 33%
    03:00 +10°C° 0 mm 5 m/S 694 mmHg 34%
    04:00 +10°C° 0 mm 5 m/S 694 mmHg 35%
    05:00 +10°C° 0 mm 6 m/S 694 mmHg 35%
    06:00 +10°C° 0 mm 6 m/S 694 mmHg 35%
    07:00 +11°C° 0 mm 7 m/S 695 mmHg 35%
    08:00 +12°C° 0 mm 7 m/S 695 mmHg 32%
    09:00 +15°C° 0 mm 8 m/S 695 mmHg 30%
    10:00 +16°C° 0 mm 8 m/S 696 mmHg 28%
    17:00 +20°C° 0 mm 5 m/S 695 mmHg 27%
    18:00 +20°C° 0 mm 5 m/S 695 mmHg 29%
    19:00 +19°C° 0 mm 5 m/S 695 mmHg 32%
    20:00 +17°C° 0 mm 5 m/S 695 mmHg 33%
    21:00 +17°C° 0 mm 5 m/S 696 mmHg 34%
    22:00 +16°C° 0 mm 5 m/S 696 mmHg 35%
    23:00 +16°C° 0 mm 5 m/S 696 mmHg 36%

    22 Februar, Samstag

    Zeit Temperatur Niederschläge Wind Luftdruck Luftfeuchtigkeit
    00:00 +15°C° 0 mm 5 m/S 695 mmHg 37%
    01:00 +15°C° 0 mm 5 m/S 695 mmHg 38%
    02:00 +15°C° 0 mm 5 m/S 695 mmHg 38%
    03:00 +14°C° 0 mm 5 m/S 695 mmHg 39%
    04:00 +14°C° 0 mm 5 m/S 695 mmHg 39%
    05:00 +14°C° 0 mm 5 m/S 695 mmHg 40%
    06:00 +13°C° 0 mm 5 m/S 696 mmHg 41%
    07:00 +13°C° 0 mm 4 m/S 696 mmHg 41%
    08:00 +15°C° 0 mm 5 m/S 697 mmHg 37%
    09:00 +17°C° 0 mm 5 m/S 697 mmHg 33%
    10:00 +20°C° 0 mm 6 m/S 698 mmHg 29%
    11:00 +21°C° 0 mm 5 m/S 698 mmHg 27%
    12:00 +22°C° 0 mm 5 m/S 697 mmHg 24%
    13:00 +23°C° 0 mm 5 m/S 697 mmHg 22%
    14:00 +25°C° 0 mm 4 m/S 697 mmHg 22%
    15:00 +25°C° 0 mm 4 m/S 697 mmHg 22%
    16:00 +25°C° 0 mm 3 m/S 696 mmHg 22%
    17:00 +23°C° 0 mm 4 m/S 696 mmHg 26%
    18:00 +21°C° 0 mm 4 m/S 696 mmHg 29%
    19:00 +20°C° 0 mm 4 m/S 696 mmHg 32%
    20:00 +19°C° 0 mm 4 m/S 696 mmHg 34%
    21:00 +19°C° 0 mm 4 m/S 696 mmHg 35%
    22:00 +18°C° 0 mm 4 m/S 696 mmHg 37%
    23:00 +18°C° 0 mm 4 m/S 696 mmHg 38%

    23 Februar, Sonntag

    Zeit Temperatur Niederschläge Wind Luftdruck Luftfeuchtigkeit
    00:00 +17°C° 0 mm 4 m/S 695 mmHg 39%
    01:00 +16°C° 0 mm 5 m/S 695 mmHg 40%
    02:00 +15°C° 0 mm 5 m/S 695 mmHg 41%
    03:00 +15°C° 0 mm 5 m/S 694 mmHg 42%
    04:00 +14°C° 0 mm 5 m/S 694 mmHg 43%
    05:00 +14°C° 0 mm 5 m/S 694 mmHg 44%
    06:00 +14°C° 0 mm 5 m/S 695 mmHg 45%
    07:00 +14°C° 0 mm 5 m/S 695 mmHg 45%
    08:00 +15°C° 0 mm 5 m/S 695 mmHg 41%
    09:00 +17°C° 0 mm 6 m/S 696 mmHg 36%
    10:00 +20°C° 0 mm 6 m/S 696 mmHg 32%
    11:00 +21°C° 0 mm 5 m/S 696 mmHg 30%
    12:00 +23°C° 0 mm 5 m/S 696 mmHg 27%
    13:00 +25°C° 0 mm 4 m/S 695 mmHg 25%
    14:00 +25°C° 0 mm 4 m/S 695 mmHg 25%
    15:00 +25°C° 0 mm 3 m/S 695 mmHg 25%
    16:00 +25°C° 0 mm 3 m/S 694 mmHg 25%
    17:00 +24°C° 0 mm 2 m/S 694 mmHg 29%
    18:00 +23°C° 0 mm 2 m/S 694 mmHg 33%
    19:00 +21°C° 0 mm 1 m/S 694 mmHg 37%
    20:00 +20°C° 0 mm 2 m/S 694 mmHg 37%
    21:00 +19°C° 0 mm 2 m/S 694 mmHg 38%
    22:00 +19°C° 0 mm 3 m/S 694 mmHg 38%
    23:00 +18°C° 0 mm 3 m/S 694 mmHg 40%
    Mehr zeigen